Location: Unspecified
(0.0000°N, 0.0000°E)
Time: 06:55:03
(UTC+00:00)

Hubble Space Telescope - Pass Details

Date: 16 October 2019
Orbit: 536 x 540 km, 28.5° (Epoch: 14 October)

Event Time Altitude Azimuth Distance (km) Brightness Sun altitude
Rises 18:45:57 0° 311° (NW) 2,670 4.9 -14.9°
Reaches altitude 10° 18:48:17 10° 318° (NW) 1,781 3.9 -15.5°
Maximum altitude 18:52:13 43° 30° (NNE) 759 1.2 -16.5°
Enters shadow 18:53:21 34° 71° (ENE) 889 1.3 -16.7°
